Weather History for Gastonia, NC

Change the Weather History Date:

Saturday, December 14, 2013

  Actual Average (KCLT) Record (KCLT)
Temperature  
Mean Temperature 42 °F 42 °F  
Max Temperature 46 °F 53 °F 73 °F (1948)
Min Temperature 39 °F 32 °F 12 °F (1962)
Degree Days  
Heating Degree Days 22 23  
Month to date heating degree days 293  
Since 1 July heating degree days 929  
Cooling Degree Days 0 0  
Month to date cooling degree days 0  
Year to date cooling degree days 1517  
Moisture  
Dew Point 38 °F    
Average Humidity 86    
Maximum Humidity 100    
Minimum Humidity 62    
Precipitation  
Precipitation 0.85 in 0.10 in 2.38 in (1879)
Month to date precipitation 1.49  
Year to date precipitation 39.87  
Snow  
Snow 0.00 in 0.00 in 2.90 in (1958)
Month to date snowfall 0.0  
Since 1 July snowfall 0.1  
Snow Depth -    
Sea Level Pressure  
Sea Level Pressure 29.99 in    
Wind  
Wind Speed 4 mph (NNE)    
Max Wind Speed 14 mph    
Max Gust Speed 21 mph    
Visibility 5 miles    
Events Rain    
T = Trace of Precipitation, MM = Missing Value Source: NWS Daily Summary

Daily Weather History Graph

Daily Weather History Graph

Search for Another Location

Airport:

Trip Planner

Search our weather history database for the weather conditions in past years. The results will help you decide how hot, cold, wet, or windy it might be!

Date:

Astronomy

Dec. 14, 2013 Rise Set
Actual Time 7:25 AM EST 5:13 PM EST
Civil Twilight 6:57 AM EST 5:41 PM EST
Nautical Twilight 6:25 AM EST 6:13 PM EST
Astronomical Twilight 5:54 AM EST 6:44 PM EST
Moon 3:31 PM EST (12/14) 4:48 AM EST (12/14)
Length of Visible Light 10h 44m
Length of Day
9h 48m
Waxing Gibbous, 93% of the Moon is Illuminated
Dec 14
Waxing Gibbous
Dec 17
Full
Dec 25
Last Quarter
Jan 1
New
Jan 7
First Quarter

Hourly Weather History & Observations

Time (EST) Temp. Windchill Dew Point Humidity Pressure Visibility Wind Dir Wind Speed Gust Speed Precip Events Conditions
12:54 AM 42.1 °F - 30.9 °F 65% 30.26 in 10.0 mi Calm Calm - N/A   Clear
1:54 AM 41.0 °F - 32.0 °F 70% 30.23 in 10.0 mi Calm Calm - N/A   Overcast
2:54 AM 39.9 °F - 33.1 °F 77% 30.25 in 10.0 mi Calm Calm - N/A   Overcast
3:54 AM 42.1 °F - 30.9 °F 65% 30.23 in 10.0 mi Calm Calm - N/A   Overcast
4:54 AM 43.0 °F - 30.9 °F 62% 30.20 in 10.0 mi Calm Calm - N/A   Mostly Cloudy
5:54 AM 43.0 °F 41.3 °F 32.0 °F 65% 30.18 in 10.0 mi NE 3.5 mph - N/A   Overcast
6:54 AM 41.0 °F 38.0 °F 34.0 °F 76% 30.18 in 10.0 mi NNE 4.6 mph - 0.00 in Rain Light Rain
7:05 AM 41.0 °F 39.0 °F 33.8 °F 76% 30.17 in 10.0 mi NNE 3.5 mph - N/A   Overcast
7:54 AM 41.0 °F - 37.0 °F 86% 30.19 in 10.0 mi Calm Calm - 0.01 in   Overcast
8:54 AM 43.0 °F 40.3 °F 35.1 °F 74% 30.15 in 10.0 mi East 4.6 mph - N/A   Overcast
9:22 AM 42.8 °F 40.1 °F 35.6 °F 76% 30.12 in 10.0 mi East 4.6 mph - N/A   Overcast
9:54 AM 44.1 °F 40.8 °F 37.9 °F 79% 30.12 in 10.0 mi ESE 5.8 mph - 0.00 in   Overcast
10:54 AM 46.9 °F - 39.0 °F 74% 30.05 in 10.0 mi East 6.9 mph 16.1 mph N/A   Overcast
11:37 AM 46.4 °F 42.9 °F 42.8 °F 87% 30.02 in 6.0 mi NNE 6.9 mph - 0.01 in Rain Light Rain
11:54 AM 46.9 °F - 43.0 °F 86% 30.00 in 4.0 mi NE 8.1 mph - 0.04 in Rain Rain
12:29 PM 44.6 °F 40.2 °F 44.6 °F 100% 29.94 in 2.0 mi NNE 8.1 mph - 0.05 in Rain Rain
12:42 PM 44.6 °F 40.2 °F 44.6 °F 100% 29.92 in 2.0 mi NNE 8.1 mph - 0.08 in Rain Rain
12:54 PM 45.0 °F 40.1 °F 44.1 °F 97% 29.92 in 1.2 mi NE 9.2 mph - 0.14 in Rain Heavy Rain
1:08 PM 44.6 °F 38.8 °F 44.6 °F 100% 29.88 in 1.8 mi NNE 11.5 mph - 0.03 in Rain Light Rain
1:13 PM 44.6 °F 39.2 °F 44.6 °F 100% 29.89 in 2.0 mi NNE 10.4 mph - 0.04 in Rain Rain
1:15 PM 44.6 °F 38.4 °F 44.6 °F 100% 29.89 in 1.8 mi NNE 12.7 mph - 0.05 in Rain Rain
1:27 PM 44.6 °F 38.8 °F 42.8 °F 93% 29.88 in 1.0 mi North 11.5 mph - 0.14 in Rain Heavy Rain
1:54 PM 42.1 °F 35.7 °F 41.0 °F 96% 29.92 in 1.0 mi North 11.5 mph 19.6 mph 0.37 in Rain Heavy Rain
2:22 PM 39.2 °F 31.2 °F 37.4 °F 93% 29.93 in 2.0 mi North 13.8 mph 20.7 mph 0.18 in Rain Heavy Rain
2:54 PM 39.0 °F 31.8 °F 37.9 °F 96% 29.94 in 3.0 mi North 11.5 mph - 0.25 in Rain Light Rain
3:06 PM 39.2 °F 32.5 °F 37.4 °F 93% 29.91 in 3.0 mi NE 10.4 mph 18.4 mph 0.02 in Rain Rain
3:31 PM 39.2 °F 33.6 °F 39.2 °F 100% 29.90 in 1.8 mi NNE 8.1 mph - 0.03 in Rain Light Rain
3:41 PM 39.2 °F 33.6 °F 39.2 °F 100% 29.89 in 2.0 mi NNE 8.1 mph - 0.04 in Rain Light Rain
3:54 PM 39.9 °F 35.8 °F 39.0 °F 97% 29.91 in 2.5 mi NNE 5.8 mph - 0.04 in Rain Light Rain
4:08 PM 39.2 °F 33.0 °F 39.2 °F 100% 29.88 in 4.0 mi NNE 9.2 mph - 0.00 in   Overcast
4:54 PM 39.0 °F 32.8 °F 37.9 °F 96% 29.90 in 5.0 mi North 9.2 mph - 0.00 in   Overcast
5:54 PM 39.0 °F 32.8 °F 37.9 °F 96% 29.90 in 5.0 mi North 9.2 mph - N/A   Overcast
6:54 PM 41.0 °F 36.4 °F 37.9 °F 89% 29.89 in 4.0 mi North 6.9 mph - N/A   Overcast
7:54 PM 43.0 °F 40.3 °F 37.9 °F 82% 29.87 in 4.0 mi North 4.6 mph - N/A   Haze
8:54 PM 43.0 °F 41.3 °F 37.9 °F 82% 29.87 in 4.0 mi NNE 3.5 mph - N/A   Haze
9:54 PM 42.1 °F 40.2 °F 37.9 °F 85% 29.86 in 3.0 mi North 3.5 mph - N/A   Overcast
10:54 PM 43.0 °F - 37.9 °F 82% 29.83 in 3.0 mi Calm Calm - N/A   Haze
11:13 PM 44.6 °F 43.1 °F 37.4 °F 76% 29.79 in 2.5 mi NE 3.5 mph - N/A   Haze
11:54 PM 46.9 °F - 37.9 °F 71% 29.83 in 2.5 mi Calm Calm - N/A   Haze